This is the latest recevied weather packets stored in our database for station/object SV7GBF-2. If no packets are shown the sender has not sent any weather packets the latest 10 day(s).
| Time | Temp. | Humidity | Pressure | Rain* | Wind** | Luminosity | Snow |
|---|---|---|---|---|---|---|---|
| 1787948045 | 27.22° C | 20% | 1018 hPa | - | - | - | - |
| 1787947445 | 27.22° C | 20% | 1018 hPa | - | - | - | - |
| 1787946844 | 27.22° C | 20% | 1018 hPa | - | - | - | - |
| 1787946244 | 27.78° C | 20% | 1018 hPa | - | - | - | - |
| 1787945644 | 27.78° C | 21% | 1018 hPa | - | - | - | - |
| 1787945044 | 27.78° C | 21% | 1018 hPa | - | - | - | - |
| 1787944445 | 27.78° C | 20% | 1018 hPa | - | - | - | - |
| 1787943844 | 27.78° C | 21% | 1018 hPa | - | - | - | - |
| 1787943244 | 27.78° C | 27% | 1018 hPa | - | - | - | - |
| 1787942644 | 27.78° C | 32% | 1018 hPa | - | - | - | - |
| 1787942044 | 27.78° C | 40% | 1018 hPa | - | - | - | - |
| 1787941444 | 28.89° C | 40% | 1017 hPa | - | - | - | - |
| 1787940845 | 28.33° C | 40% | 1017 hPa | - | - | - | - |
| 1787940244 | 28.89° C | 40% | 1017 hPa | - | - | - | - |
| 1787939045 | 28.89° C | 36% | 1017 hPa | - | - | - | - |
| 1787938444 | 28.89° C | 33% | 1017 hPa | - | - | - | - |
| 1787937843 | 28.89° C | 31% | 1017 hPa | - | - | - | - |
| 1787937247 | 28.89° C | 30% | 1017 hPa | - | - | - | - |
| 1787936643 | 28.89° C | 35% | 1017 hPa | - | - | - | - |
| 1787936045 | 28.89° C | 37% | 1017 hPa | - | - | - | - |
| 1787935445 | 28.89° C | 34% | 1017 hPa | - | - | - | - |
| 1787934843 | 29.44° C | 34% | 1017 hPa | - | - | - | - |
| 1787934244 | 28.89° C | 33% | 1017 hPa | - | - | - | - |
| 1787933645 | 29.44° C | 34% | 1017 hPa | - | - | - | - |
| 1787933044 | 29.44° C | 34% | 1017 hPa | - | - | - | - |
* Rain since midnight (hover to see other rain measurements)
** Current wind speed in m/s (hover to see current wind gust speed)